EW9530 Weather Reports


Display with metric or nautical units.
time (UTC)temp
F
wind
direction
speed
MPH
gust
MPH
rain 1hr
in
rain 24hr
in
rain mn
in
humidity
%
barometer
mb
20260509234651 54 67 0.0 0.0 0.00 0.31 0.00 94 1015.1
20260509233139 55 67 0.0 0.0 0.00 0.31 0.00 94 1015.1
20260509231651 55 67 0.0 0.0 0.00 0.31 0.00 94 1015.1
20260509224651 56 67 0.0 0.0 0.00 0.31 0.00 94 1015.2
20260509223157 56 67 0.0 0.0 0.00 0.31 0.00 94 1015.3
20260509221651 56 67 0.0 0.0 0.00 0.31 0.00 94 1015.0
20260509214649 56 67 0.0 0.0 0.00 0.31 0.31 94 1015.0
20260509213138 57 67 0.0 0.0 0.00 0.31 0.31 94 1015.0
20260509211650 57 67 0.0 0.0 0.00 0.31 0.31 94 1014.9
20260509204651 57 67 0.0 0.0 0.00 0.31 0.31 93 1014.7
20260509203141 57 67 0.0 0.0 0.00 0.31 0.31 93 1014.5
20260509201652 57 67 0.0 0.0 0.00 0.31 0.31 93 1014.3
20260509194651 57 67 0.0 0.0 0.00 0.31 0.31 93 1013.7
20260509193156 57 9 0.0 3.0 0.00 0.31 0.31 92 1013.3
20260509191653 58 280 0.0 2.0 0.00 0.31 0.31 92 1013.4
20260509184650 58 282 2.0 7.0 0.01 0.31 0.31 92 1012.8
20260509183155 57 284 0.0 6.0 0.02 0.31 0.31 93 1012.7
20260509181653 57 283 0.0 3.0 0.02 0.31 0.31 93 1012.4
20260509180148 57 287 3.0 8.0 0.05 0.31 0.31 93 1012.3
20260509174652 57 265 1.0 6.0 0.06 0.30 0.30 93 1012.2
20260509173157 57 273 0.0 7.0 0.07 0.28 0.28 93 1012.2
20260509171651 57 346 2.0 5.0 0.09 0.28 0.28 92 1012.4
20260509170133 57 146 0.0 1.0 0.10 0.26 0.26 92 1012.8
20260509164651 58 146 0.0 0.0 0.13 0.24 0.24 92 1013.4
20260509163137 58 146 0.0 0.0 0.17 0.21 0.21 91 1013.7
20260509161652 58 146 0.0 0.0 0.19 0.19 0.19 90 1014.2
20260509160149 58 82 0.0 4.0 0.15 0.15 0.15 89 1014.4
20260509154653 59 155 2.0 8.0 0.10 0.10 0.10 87 1014.5
20260509151650 60 191 2.0 6.0 0.00 0.00 0.00 83 1012.8
20260509144653 62 181 1.0 6.0 0.00 0.00 0.00 79 1012.1
20260509143139 62 111 2.0 6.0 0.00 0.00 0.00 78 1012.3
20260509141651 63 138 0.0 1.0 0.00 0.00 0.00 80 1012.7
20260509140148 64 140 0.0 0.0 0.00 0.00 0.00 78 1013.2
20260509134651 64 140 0.0 7.0 0.00 0.00 0.00 77 1013.5
20260509133156 64 192 0.0 0.0 0.00 0.00 0.00 77 1013.6
20260509131652 64 192 0.0 1.0 0.00 0.00 0.00 77 1013.6
20260509124652 63 192 0.0 4.0 0.00 0.00 0.00 82 1013.4
20260509123139 63 143 0.0 1.0 0.00 0.00 0.00 86 1013.1
20260509121651 63 143 0.0 0.0 0.00 0.00 0.00 85 1013.7
20260509120150 63 180 0.0 3.0 0.00 0.00 0.00 83 1014.3
20260509114651 64 116 1.0 10.0 0.00 0.00 0.00 77 1014.7
20260509113154 65 112 5.0 10.0 0.00 0.00 0.00 72 1014.8
20260509111653 65 146 1.0 8.0 0.00 0.00 0.00 72 1014.8
20260509110151 66 150 1.0 5.0 0.00 0.00 0.00 73 1014.6
20260509104651 66 169 0.0 0.0 0.00 0.00 0.00 72 1014.7
20260509103157 65 183 0.0 0.0 0.00 0.00 0.00 73 1015.0
20260509101651 65 167 0.0 0.0 0.00 0.00 0.00 72 1014.8
20260509100150 64 334 0.0 0.0 0.00 0.00 0.00 73 1014.8
20260509094651 63 355 0.0 0.0 0.00 0.00 0.00 74 1014.9
20260509093138 62 28 0.0 5.0 0.00 0.00 0.00 76 1014.9
20260509091651 62 53 1.0 4.0 0.00 0.00 0.00 77 1014.8
20260509084651 60 355 1.0 7.0 0.00 0.00 0.00 78 1014.7
20260509083139 60 36 3.0 8.0 0.00 0.00 0.00 79 1014.8
20260509081652 59 45 4.0 8.0 0.00 0.00 0.00 80 1014.7
20260509074652 58 355 3.0 8.0 0.00 0.00 0.00 83 1014.8
20260509073156 57 15 0.0 6.0 0.00 0.00 0.00 84 1015.2
20260509071652 56 5 1.0 5.0 0.00 0.00 0.00 85 1015.2
20260509064651 55 336 0.0 5.0 0.00 0.00 0.00 87 1015.6
20260509063155 55 5 2.0 4.0 0.00 0.00 0.00 88 1015.6
20260509061651 54 16 1.0 4.0 0.00 0.00 0.00 88 1015.9
20260509060149 54 330 1.0 6.0 0.00 0.00 0.00 88 1016.0
20260509054653 54 323 1.0 5.0 0.00 0.00 0.00 88 1015.7
20260509053156 54 5 4.0 6.0 0.00 0.00 0.00 88 1015.8
20260509051652 54 5 2.0 4.0 0.00 0.00 0.00 88 1015.8
20260509044653 54 331 0.0 3.0 0.00 0.00 0.00 88 1015.7
20260509043139 54 5 2.0 4.0 0.00 0.00 0.00 88 1015.6
20260509041651 54 5 2.0 4.0 0.00 0.00 0.00 88 1015.8
20260509040149 54 5 0.0 0.0 0.00 0.00 0.00 88 1015.8
20260509034652 54 5 1.0 5.0 0.00 0.00 0.00 88 1015.9
20260509033138 54 44 3.0 6.0 0.00 0.00 0.00 88 1015.8
20260509031651 54 23 3.0 6.0 0.00 0.00 0.00 88 1016.1
20260509030151 54 5 0.0 4.0 0.00 0.00 0.00 88 1016.1
20260509024651 54 5 2.0 5.0 0.00 0.00 0.00 89 1016.1
20260509023137 54 360 2.0 5.0 0.00 0.00 0.00 89 1016.2
20260509021652 54 5 0.0 4.0 0.00 0.00 0.00 89 1016.3
20260509014650 54 51 3.0 6.0 0.00 0.00 0.00 89 1016.6
20260509013157 54 15 1.0 4.0 0.00 0.00 0.00 89 1016.7
20260509011652 54 15 1.0 5.0 0.00 0.00 0.00 89 1016.8
20260509004639 54 36 0.0 7.0 0.00 0.00 0.00 89 1017.0
20260509003140 55 50 2.0 5.0 0.00 0.00 0.00 89 1017.0
20260509001504 55 20 3.0 6.0 0.00 0.00 0.00 89 1017.0
20260509000149 55 14 2.0 5.0 0.00 0.00 0.00 90 1017.0